Location: Mouss�
(47.9236°N, 1.2701°W)
Time: 21:34:56
(UTC+00:00)

H-2A R/B - Pass Details

Date: 03 March 2021
Orbit: 732 x 837 km, 98.2° (Epoch: 14 April)

Event Time Altitude Azimuth Distance (km) Brightness Sun altitude
Rises 19:41:22 0° 196° (SSW) 3,366 5.4 -18.9°
Reaches altitude 10° 19:44:02 10° 208° (SSW) 2,443 4.8 -19.3°
Maximum altitude 19:48:41 28° 267° (W) 1,515 4.2 -20.1°
Drops below altitude 10° 19:53:21 10° 326° (NW) 2,457 5.3 -20.9°
Sets 19:56:03 0° 338° (NNW) 3,388 5.9 -21.3°
